This demonstration page uses our WeatherBlox Daily Observations layout. Learn more.

Left ArrowRight Arrow

Hourly Observations for September 26, 2020

Temp ( °F °C ) Dew Point ( °F °C ) Humidity (%) Winds ( mph kmh ) Pressure ( in mb ) Visibility ( mi km ) Precip ( " mm )
12:59 am 00:59 Cloudy 71 21.7 66 18.9 84 84 SE 7 11 30.03 1017 10 16 0.00 0.00
1:59 am 01:59 Cloudy 71 21.7 67 19.4 87 87 SSE 9 15 30.01 1016 10 16 0.00 0.00
2:47 am 02:47 Cloudy 71 21.7 68 20 90 90 SSE 8 13 30.00 1016 10 16 0.00 0.00
2:59 am 02:59 Cloudy 72 22.2 68 20 87 87 SSE 8 13 30.00 1016 10 16 0.00 0.00
3:38 am 03:38 Cloudy 71 21.7 68 20 90 90 SSE 9 15 29.99 1016 10 16 0.00 0.00
3:59 am 03:59 Cloudy with Light Rain 71 21.7 68 20 90 90 SSE 7 11 29.98 1015 6 10 0.00 0.00
4:59 am 04:59 Cloudy 71 21.7 68 20 90 90 SSE 5 7 29.98 1015 8 13 0.00 0.00
5:12 am 05:12 Cloudy 71 21.7 68 20 90 90 undefined N/A 29.99 1016 8 13 0.00 0.00
5:46 am 05:46 Cloudy 71 21.7 68 20 90 90 ESE 3 6 29.99 1016 8 13 0.00 0.00
5:59 am 05:59 Cloudy 71 21.7 68 20 90 90 E 3 6 29.99 1016 8 13 0.00 0.00
6:59 am 06:59 Cloudy with Mist and Fog 71 21.7 68 20 90 90 Calm 30.00 1016 6 10 0.00 0.00
7:33 am 07:33 Cloudy 71 21.7 68 20 90 90 SE 5 7 30.01 1016 7 11 0.00 0.00
7:59 am 07:59 Cloudy 72 22.2 69 20.6 91 91 SE 5 7 30.01 1016 7 11 0.00 0.00
8:44 am 08:44 Mostly Cloudy 74 23.3 69 20.6 85 85 S 6 9 30.02 1017 9 14 0.01 0.25
8:59 am 08:59 Mostly Cloudy with Light Rain 73 22.8 69 20.6 87 87 S 5 7 30.01 1016 7 11 0.01 0.25
9:02 am 09:02 Mostly Cloudy with Light Rain 73 22.8 69 20.6 87 87 S 6 9 30.01 1016 7 11 0.00 0.00
9:59 am 09:59 Mostly Cloudy 76 24.4 70 21.1 82 82 SSE 5 7 30.02 1017 10 16 0.00 0.00
10:12 am 10:12 Mostly Cloudy 76 24.4 70 21.1 82 82 VRB 3 6 30.02 1017 10 16 0.00 0.00
10:34 am 10:34 Mostly Cloudy 76 24.4 69 20.6 79 79 ESE 3 6 30.02 1017 10 16 0.00 0.00
10:59 am 10:59 Mostly Cloudy 76 24.4 70 21.1 82 82 E 7 11 30.01 1016 9 14 0.00 0.00
11:17 am 11:17 Mostly Cloudy 78 25.6 70 21.1 76 76 ENE 7 11 30.01 1016 10 16 0.00 0.00
11:24 am 11:24 Mostly Cloudy 79 26.1 71 21.7 77 77 VRB 3 6 30.01 1016 10 16 0.00 0.00
11:59 am 11:59 Cloudy with Light Rain 76 24.4 70 21.1 82 82 WSW 5 7 30.01 1016 10 16 0.00 0.00
12:19 pm 12:19 Mostly Cloudy with Light Rain 76 24.4 71 21.7 85 85 VRB 3 6 30.00 1016 10 16 0.00 0.00
12:59 pm 12:59 Cloudy 78 25.6 70 21.1 76 76 NNW 6 9 29.99 1016 10 16 0.00 0.00
1:09 pm 13:09 Cloudy 77 25 69 20.6 77 77 NNE 3 6 29.99 1016 10 16 0.00 0.00
1:30 pm 13:30 Cloudy with Light Rain 74 23.3 69 20.6 85 85 W 7 11 29.99 1016 10 16 0.00 0.00
1:59 pm 13:59 Cloudy with Light Rain 74 23.3 69 20.6 85 85 NNW 7 11 29.98 1015 6 10 0.00 0.00
2:47 pm 14:47 Mostly Cloudy 76 24.4 72 22.2 88 88 ENE 3 6 29.96 1015 8 13 0.04 1.02
2:59 pm 14:59 Cloudy 76 24.4 71 21.7 85 85 Calm 29.96 1015 9 14 0.04 1.02
3:06 pm 15:06 Cloudy 77 25 71 21.7 82 82 NW 6 9 29.96 1015 10 16 0.00 0.00
3:19 pm 15:19 Mostly Cloudy with Light Rain 77 25 70 21.1 79 79 NNW 6 9 29.96 1015 10 16 0.00 0.00
3:59 pm 15:59 Mostly Cloudy 74 23.3 70 21.1 88 88 NNW 7 11 29.96 1015 7 11 0.00 0.00
4:15 pm 16:15 Cloudy 74 23.3 70 21.1 88 88 NW 8 13 29.96 1015 8 13 0.00 0.00
4:27 pm 16:27 Cloudy 74 23.3 68 20 82 82 NNW 10 17 29.96 1015 10 16 0.00 0.00
4:59 pm 16:59 Cloudy 74 23.3 67 19.4 79 79 NW 9 15 29.96 1015 10 16 0.00 0.00
5:11 pm 17:11 Cloudy with Light Rain 74 23.3 68 20 82 82 WNW 8 13 29.96 1015 10 16 0.00 0.00
5:59 pm 17:59 Cloudy 73 22.8 68 20 84 84 WNW 10 17 29.97 1015 10 16 0.00 0.00
6:59 pm 18:59 Cloudy 71 21.7 67 19.4 87 87 W 8 13 29.98 1015 10 16 0.00 0.00
7:59 pm 19:59 Cloudy with Drizzle 71 21.7 68 20 90 90 NW 8 13 29.98 1015 9 14 0.00 0.00
8:36 pm 20:36 Cloudy with Drizzle 71 21.7 68 20 90 90 NW 8 13 29.98 1015 7 11 0.00 0.00
8:59 pm 20:59 Cloudy with Mist and Fog 71 21.7 68 20 90 90 NW 8 13 29.98 1015 6 10 0.00 0.00
9:45 pm 21:45 Cloudy 71 21.7 68 20 90 90 NW 6 9 29.99 1016 8 13 0.00 0.00
9:59 pm 21:59 Cloudy 71 21.7 68 20 90 90 NNW 6 9 29.99 1016 8 13 0.00 0.00
10:06 pm 22:06 Cloudy 71 21.7 67 19.4 87 87 NNW 6 9 29.99 1016 8 13 0.00 0.00
10:59 pm 22:59 Cloudy with Light Rain 71 21.7 67 19.4 87 87 WNW 6 9 29.98 1015 7 11 0.00 0.00
11:45 pm 23:45 Cloudy with Drizzle 70 21.1 68 20 93 93 WNW 5 7 29.98 1015 7 11 0.00 0.00
11:59 pm 23:59 Cloudy with Drizzle 70 21.1 68 20 93 93 NW 5 7 29.98 1015 6 10 0.00 0.00

Powered by AerisWeather